sat.trackr.live / text

‹ back to catalog

UNKNOWN

NORAD 81537

UNKNOWN UNKNOWN UNKNOWN

§ Identity

Operator
Country
Launch date
Launch site
Launch vehicle
Mass (kg)
RCS (m²)

External: N2YO · Heavens-Above

§ Orbital elements

Epoch: 2026-05-23T06:14:11.808096Z

Period
102.33 min
Inclination
71.0371°
Eccentricity
0.0079420
Mean motion
14.07200155 rev/d
Perigee alt
811.4 km
Apogee alt
926.5 km
Semi-major
7,247.1 km
B*
1.9240e-5
RAAN
135.0528°
Arg perigee
268.7931°
Mean anomaly
90.4088°
Rev number
64,318

§ Raw data

UNKNOWN1 81537U          26143.25985889 -.00000014  00000+0  19240-4 0  99992 81537  71.0371 135.0528 0079420 268.7931  90.4088 14.07200155643183

JSON: /api/v1/satellites/81537 · /tle

For live sub-satellite position, see the globe view (requires WebGL).

§ Visibility from observer

Set your observer location to see the next 7 days of passes ≥ 10°. The values pass through the URL so the page stays shareable.

No JS? Fill the form by hand. The geolocation button needs JavaScript.